Hourly Data Report for June 20, 2021

SANIRAJAK AIRPORT
NUNAVUT
Current Station Operator: NAVCAN

68°46'33.000" N
81°14'33.000" W
9.10 m
2402354
71293
YUX

Download Data

Hourly Data (June 2021)
Hourly Data Report for June 20, 2021
TIME
LST
Temp Definition
°C
Dew Point Definition
°C
Rel Hum Definition
%
Precip. Amount Definition
mm

Wind Dir Definition
10's deg

Wind Spd Definition
km/h
Visibility Definition
km
Stn Press Definition
kPa
Hmdx Definition


Wind Chill Definition


Weather Definition


00:00 0.8 -0.4 92 0.0 3 17 16.1 100.54     LegendNANA
01:00 0.8 -0.4 92 0.0 5 21 16.1 100.51     LegendNANA
02:00 0.8 -0.2 93 0.0 6 21 16.1 100.50     LegendNANA
03:00 0.7 0.0 95 0.0 6 24 16.1 100.49     LegendNANA
04:00 0.8 -0.1 94 0.0 7 24 16.1 100.50     LegendNANA
05:00 0.8 0.1 95 0.0 8 18 16.1 100.53     LegendNANA
06:00 1.1 0.2 94 0.0 8 24 16.1 100.54     LegendNANA
07:00 1.5 0.2 91 0.0 7 22 16.1 100.56     LegendNANA
08:00 2.0 0.4 89 0.0 6 22 16.1 100.55     LegendNANA
09:00 2.3 0.2 86 0.0 5 21 16.1 100.56     LegendNANA
10:00 2.3 0.2 86 0.0 6 21 14.5 100.56     LegendNANA
11:00 2.8 0.4 84 0.0 6 22 16.1 100.54     LegendNANA
12:00 2.8 0.3 83 0.0 5 24 16.1 100.51     LegendNANA
13:00 2.8 0.5 85 0.0 6 22 9.7 100.51     Fog
14:00 2.7 0.5 85 0.0 5 24 11.3 100.50     LegendNANA
15:00 2.5 0.6 87 0.0 6 21 16.1 100.52     LegendNANA
16:00 2.1 0.6 90 0.0 7 21 16.1 100.52     LegendNANA
17:00 1.4 0.4 93 0.0 8 22 16.1 100.52     LegendNANA
18:00 0.6 0.3 98 0.0 8 22 3.6 100.50     Rain, Fog
19:00 1.4 0.5 94 0.0 6 22 14.5 100.48     LegendNANA
20:00 1.5 0.8 95 0.0 6 26 16.1 100.49     LegendNANA
21:00 1.4 0.8 96 0.0 7 26 16.1 100.47     LegendNANA
22:00 1.3 0.9 97 0.0 6 24 16.1 100.44     LegendNANA
23:00 1.1 1.0 99 0.0 7 26 6.4 100.43     Rain, Fog

Notes on Data Quality.

Legend

  • E = Estimated
  • M = Missing
  • NA = Not Available*
  • [empty] = Indicates an unobserved value
Date modified: